[[{"header":{"parameterUnit":"m.s-1","parameterCategory":1,"la1":30.2991,"la2":30.254,"lo1":-89.0895,"lo2":-89.0444,"dy":0.0017,"dx":0.0017,"nx":28,"ny":28,"refTime":"2023-08-17T03:00:00:Z","depth":0,"parameterNumber":2,"parameterNumberName":"U-component_of_WINDS"},"data":[0,0,0,0,0,0,0,0,0,0,0,0,0,0,0,0,0,0,0,0,0,0,0,0,0,0,0,0,0,0,0,0,0,0,0,0,0,0,0,0,0,0,0,0,0,0,0,0,0,0,0,0,0,0,0,0,0,0,1.6298,1.6298,0,1.6357,1.6358,1.6359,1.6367,1.6366,1.6365,1.6365,1.6423,1.6425,1.6427,0,0,0,0,0,0,0,0,0,0,0,0,0,1.6186,1.6188,1.6297,1.6298,1.6299,1.6357,1.6358,1.6359,1.6367,1.6366,1.6365,1.6365,1.6423,1.6425,1.6428,0,0,0,0,0,0,0,0,0,0,0,0,0,1.6239,1.6189,1.6297,1.631,1.6312,1.6357,1.6358,1.6359,1.6367,1.6366,1.6365,1.6364,1.6422,1.6425,1.6428,1.6464,0,0,1.6437,1.6439,0,0,0,0,0,0,0,0,1.6236,1.6243,1.6307,1.6309,1.6311,1.6354,1.634,1.6394,1.6367,1.6346,1.6365,1.6364,1.6401,1.6405,1.6418,1.6467,1.6469,1.6438,1.644,1.6441,1.6442,0,0,0,0,0,0,0,1.6232,1.624,1.6321,1.6308,1.6311,1.6311,1.6318,1.635,1.6377,1.6348,1.6348,1.6355,1.6401,1.6415,1.642,1.647,1.6438,1.644,1.6442,1.6443,1.6549,1.655,0,0,0,0,0,0,1.6227,1.6237,1.6319,1.6323,1.6271,1.6314,1.6321,1.6341,1.6377,1.6382,1.6356,1.6356,1.641,1.6416,1.6422,1.6465,1.6441,1.6444,1.6446,1.6548,1.6549,1.655,0,0,0,0,0,0,1.6224,1.6234,1.6317,1.628,1.6291,1.6317,1.6339,1.6342,1.6356,1.6383,1.6388,1.6366,1.641,1.6418,1.6453,1.6467,1.6445,1.6448,1.6547,1.6548,1.6549,1.6552,0,0,0,0,0,0,1.6221,1.6233,1.6248,1.6281,1.6293,1.6348,1.634,1.6344,1.6362,1.6362,1.6393,1.6398,1.641,1.6448,1.6456,1.6471,1.645,1.6545,1.6547,1.6549,1.6551,1.6554,1.6556,0,0,0,0,0,1.6217,1.6246,1.6249,1.6259,1.6312,1.6349,1.6356,1.637,1.6363,1.6378,1.6395,1.6397,1.6465,1.6452,1.6461,1.6477,1.6545,1.6547,1.6549,1.655,1.6553,1.6556,0,0,0,0,0,0,1.6214,1.6251,1.6254,1.6295,1.6319,1.635,1.6369,1.6373,1.6399,1.6398,1.6413,1.642,1.6455,1.647,1.6455,1.6513,1.6504,1.6508,1.6502,1.6505,1.6507,1.6502,1.6453,0,0,0,0,0,1.6218,1.6246,1.6276,1.6309,1.6321,1.6343,1.6359,1.6368,1.6393,1.6403,1.6423,1.6446,1.6473,1.649,1.6516,1.6553,1.6559,1.6569,1.6571,1.6573,1.6576,1.6595,1.6599,1.6557,1.6557,1.6557,0,0,1.6226,1.625,1.6266,1.6309,1.6329,1.6356,1.6351,1.6381,1.64,1.6408,1.6442,1.6457,1.6484,1.6521,1.6538,1.6534,1.6589,1.6575,1.6577,1.6579,1.6597,1.6601,1.6605,1.6558,1.6558,1.6558,0,0,1.6255,1.6277,1.6306,1.6326,1.6356,1.637,1.6377,1.6408,1.6418,1.6454,1.6459,1.6482,1.6528,1.6546,1.6562,1.6597,1.6599,1.6605,1.6617,1.6635,1.6639,1.6641,1.6652,1.6656,1.6608,1.6608,1.6608,0,1.6261,1.6304,1.632,1.6349,1.6366,1.6375,1.6404,1.6422,1.6458,1.647,1.6465,1.6522,1.6541,1.6581,1.6589,1.6602,1.6609,1.6601,1.6637,1.664,1.6643,1.6654,1.6658,1.6608,1.6608,1.6608,1.6608,0,1.6309,1.6338,1.6358,1.6394,1.6414,1.6442,1.6461,1.6479,1.6486,1.6501,1.6535,1.6558,1.6588,1.6599,1.6606,1.6639,1.6636,1.6634,1.6625,1.6647,1.6657,1.6662,1.6609,1.6608,1.6608,1.6608,0,0,1.6337,1.6382,1.6388,1.6404,1.6438,1.646,1.6488,1.6518,1.6532,1.6557,1.658,1.6618,1.6616,1.6633,1.6643,1.6659,1.6683,1.6655,1.6656,1.6658,1.6719,1.6719,1.6724,1.6685,1.6686,1.6687,1.6717,0,1.6369,1.6421,1.6436,1.6479,1.6505,1.6513,1.6537,1.6559,1.6573,1.6596,1.6611,1.6637,1.6634,1.6644,1.6661,1.6677,1.6695,1.6675,1.6705,1.6706,1.6697,1.673,1.673,1.6757,1.6721,1.6721,1.6722,0,1.6413,1.6439,1.6485,1.6514,1.6525,1.6547,1.6575,1.6598,1.6622,1.6631,1.665,1.6658,1.6685,1.6676,1.6714,1.6699,1.6712,1.6722,1.6723,1.6726,1.6714,1.6731,1.6766,1.677,1.6729,1.6728,1.6728,0,1.6427,1.6474,1.6507,1.652,1.6555,1.657,1.6585,1.6609,1.6626,1.665,1.6661,1.6687,1.6702,1.6721,1.6735,1.6727,1.6771,1.6763,1.6778,1.6777,1.6786,1.6785,1.6822,1.6796,1.6796,1.6796,1.6796,0,1.646,1.6487,1.6513,1.6533,1.6563,1.658,1.6609,1.6624,1.6645,1.6667,1.6676,1.6696,1.6714,1.6736,1.6747,1.6775,1.6782,1.6788,1.6791,1.6787,1.6786,1.6795,1.6793,1.6797,1.6797,1.6797,1.6797,0,1.648,1.6499,1.6535,1.6566,1.6574,1.6595,1.662,1.6639,1.6653,1.6681,1.6688,1.671,1.6736,1.6752,1.6785,1.6792,1.6823,1.6826,1.6815,1.6816,1.6829,1.6827,1.6872,1.6879,1.685,1.685,1.685,0,1.6499,1.6521,1.6553,1.6569,1.6585,1.661,1.6628,1.6644,1.6661,1.6691,1.6705,1.6733,1.6755,1.6797,1.6814,1.6839,1.6841,1.6855,1.6845,1.684,1.684,1.6838,1.6839,1.6857,1.6857,1.6857,1.6857,0,1.6531,1.6539,1.6564,1.6593,1.6613,1.6636,1.6658,1.667,1.669,1.6709,1.6736,1.6754,1.6788,1.6814,1.684,1.6854,1.6858,1.6861,1.6865,1.6861,1.6853,1.6856,1.6819,1.6859,1.6859,1.6859,1.6859,1.6859,1.655,1.6569,1.6595,1.6622,1.6641,1.6662,1.6681,1.6697,1.6721,1.6751,1.6759,1.6787,1.681,1.6846,1.686,1.6882,1.6879,1.6886,1.6888,1.6889,1.6888,1.6851,1.6887,1.6887,1.6887,1.6886,1.6886,0,1.6581,1.6598,1.6623,1.6655,1.6676,1.668,1.6704,1.6721,1.6746,1.6768,1.679,1.6821,1.6846,1.6866,1.6891,1.6904,1.6907,1.691,1.6909,1.6911,1.689,1.6883,1.6908,1.6908,1.6908,1.6908,1.6908,1.6908,1.66,1.6631,1.6642,1.6682,1.6699,1.6728,1.6741,1.676,1.6777,1.6811,1.6833,1.6846,1.6866,1.6893,1.6915,1.692,1.6929,1.6932,1.6937,1.6916,1.6913,1.6911,1.6904,1.6934,1.6934,1.6957,1.6957,1.6957]},{"header":{"parameterUnit":"m.s-1","parameterCategory":1,"la1":30.2991,"la2":30.254,"lo1":-89.0895,"lo2":-89.0444,"dy":0.0017,"dx":0.0017,"nx":28,"ny":28,"refTime":"2023-08-17T03:00:00:Z","depth":0,"parameterNumber":3,"parameterNumberName":"V-component_of_WINDS"},"data":[0,0,0,0,0,0,0,0,0,0,0,0,0,0,0,0,0,0,0,0,0,0,0,0,0,0,0,0,0,0,0,0,0,0,0,0,0,0,0,0,0,0,0,0,0,0,0,0,0,0,0,0,0,0,0,0,0,0,3.5745,3.5745,0,3.5678,3.5678,3.5677,3.5649,3.5649,3.565,3.565,3.5575,3.5573,3.5571,0,0,0,0,0,0,0,0,0,0,0,0,0,3.5843,3.5841,3.5745,3.5745,3.5744,3.5679,3.5678,3.5677,3.5649,3.5649,3.565,3.565,3.5576,3.5574,3.5571,0,0,0,0,0,0,0,0,0,0,0,0,0,3.5791,3.5841,3.5746,3.5722,3.572,3.5679,3.5678,3.5676,3.5649,3.5649,3.565,3.565,3.5577,3.5574,3.5571,3.5546,0,0,3.5561,3.556,0,0,0,0,0,0,0,0,3.5794,3.5787,3.5727,3.5724,3.5721,3.5673,3.5685,3.5633,3.5649,3.5676,3.565,3.565,3.5607,3.5602,3.5588,3.5543,3.554,3.5561,3.5559,3.5557,3.5557,0,0,0,0,0,0,0,3.5797,3.579,3.5719,3.5726,3.5722,3.5713,3.5706,3.5675,3.5641,3.5673,3.5671,3.5664,3.5606,3.5591,3.5586,3.5539,3.5561,3.5558,3.5556,3.5555,3.5467,3.5467,0,0,0,0,0,0,3.5806,3.5793,3.5721,3.5717,3.5759,3.5711,3.5703,3.5688,3.5641,3.5634,3.5664,3.5663,3.5597,3.559,3.5584,3.5551,3.5557,3.5554,3.5553,3.5468,3.5467,3.5467,0,0,0,0,0,0,3.5808,3.58,3.5724,3.5754,3.5744,3.5709,3.5692,3.5686,3.5672,3.5634,3.5627,3.5656,3.5597,3.5588,3.5556,3.5548,3.5553,3.555,3.5468,3.5468,3.5467,3.5486,0,0,0,0,0,0,3.5811,3.5801,3.5793,3.5754,3.5743,3.5699,3.5692,3.5685,3.5667,3.5666,3.5625,3.5618,3.5596,3.5561,3.5553,3.5544,3.5548,3.5469,3.5468,3.5467,3.5486,3.5486,3.5486,0,0,0,0,0,3.5814,3.58,3.5792,3.5784,3.5732,3.5699,3.5692,3.5668,3.5667,3.5657,3.5633,3.562,3.555,3.5558,3.5548,3.5538,3.5469,3.5468,3.5467,3.5486,3.5486,3.5486,0,0,0,0,0,0,3.5836,3.5794,3.5786,3.5759,3.5733,3.5694,3.5682,3.5669,3.5642,3.5641,3.5611,3.5602,3.5572,3.5552,3.5561,3.5511,3.5508,3.5506,3.5526,3.5526,3.5526,3.5531,3.5545,0,0,0,0,0,3.5838,3.5816,3.578,3.5759,3.5747,3.5717,3.5701,3.5685,3.5656,3.5645,3.5618,3.5588,3.556,3.5541,3.5513,3.5483,3.5472,3.5471,3.5471,3.5472,3.5469,3.545,3.5448,3.5464,3.5464,3.5464,0,0,3.5841,3.5815,3.5803,3.5763,3.5741,3.5717,3.5707,3.5683,3.5664,3.564,3.5609,3.5587,3.5552,3.5521,3.5505,3.5503,3.5463,3.547,3.5471,3.5468,3.5449,3.5447,3.5446,3.5463,3.5463,3.5464,0,0,3.5834,3.5814,3.5794,3.5772,3.5739,3.5719,3.5714,3.5678,3.5663,3.5631,3.5612,3.5588,3.554,3.5516,3.5497,3.548,3.5466,3.5472,3.5472,3.5454,3.5453,3.5451,3.5444,3.5442,3.5469,3.5469,3.547,0,3.5842,3.5807,3.5785,3.5761,3.5743,3.5722,3.57,3.5679,3.5638,3.5625,3.5624,3.5562,3.5537,3.5499,3.5495,3.5481,3.5472,3.5476,3.5455,3.5453,3.5452,3.5444,3.5442,3.547,3.547,3.547,3.547,0,3.5817,3.5793,3.5781,3.5744,3.5724,3.5701,3.5673,3.5656,3.5641,3.562,3.5587,3.5556,3.552,3.551,3.5495,3.5469,3.5468,3.5461,3.5458,3.5452,3.5444,3.5441,3.5471,3.5471,3.5471,3.5471,0,0,3.5823,3.5773,3.5769,3.5751,3.5713,3.5693,3.5668,3.5635,3.562,3.5592,3.5569,3.5529,3.5522,3.55,3.5482,3.5466,3.5453,3.5461,3.5459,3.5459,3.542,3.5425,3.5422,3.5444,3.5443,3.5443,3.5422,0,3.5811,3.5769,3.5747,3.5712,3.5689,3.5668,3.5646,3.5619,3.5598,3.5573,3.555,3.5521,3.5515,3.5501,3.5485,3.5458,3.5444,3.5459,3.542,3.5419,3.5429,3.5419,3.5424,3.5407,3.542,3.5419,3.5419,0,3.5791,3.5765,3.5729,3.5693,3.5682,3.5663,3.563,3.5608,3.5575,3.5561,3.5537,3.552,3.549,3.5489,3.5447,3.5458,3.544,3.5425,3.5423,3.5418,3.5418,3.5412,3.5401,3.5398,3.5414,3.5414,3.5415,0,3.5798,3.5754,3.5726,3.5712,3.5669,3.5656,3.5637,3.5605,3.5586,3.5556,3.5543,3.551,3.5492,3.5465,3.5438,3.544,3.5398,3.5395,3.5384,3.5384,3.5375,3.5376,3.536,3.5365,3.5365,3.5366,3.5366,0,3.5787,3.5765,3.5729,3.5712,3.5686,3.566,3.5634,3.5613,3.5585,3.5562,3.5541,3.5519,3.5485,3.5458,3.5436,3.5403,3.5395,3.5381,3.5376,3.5383,3.5385,3.5371,3.5371,3.5365,3.5365,3.5365,3.5365,0,3.579,3.5765,3.5733,3.5695,3.5685,3.5668,3.5634,3.5615,3.5594,3.5564,3.5556,3.5521,3.5488,3.5458,3.5414,3.5399,3.5365,3.5359,3.5377,3.5374,3.5364,3.5365,3.5338,3.5332,3.5342,3.5342,3.5342,0,3.5784,3.5768,3.5728,3.5712,3.5694,3.5668,3.5649,3.5621,3.5601,3.5563,3.5548,3.5514,3.5486,3.5433,3.5402,3.5368,3.536,3.5353,3.5354,3.5362,3.5358,3.5359,3.5357,3.5353,3.5353,3.5353,3.5353,0,3.5777,3.5765,3.5739,3.5708,3.5687,3.5661,3.5634,3.5621,3.5588,3.5567,3.5534,3.5512,3.5467,3.5432,3.5394,3.5372,3.5356,3.5353,3.5348,3.5355,3.5366,3.5358,3.5377,3.5353,3.5353,3.5353,3.5353,3.5353,3.5774,3.5758,3.5728,3.5699,3.5676,3.5651,3.5632,3.5608,3.558,3.5543,3.5528,3.5494,3.5459,3.5407,3.5385,3.5356,3.5353,3.5346,3.5345,3.5343,3.5344,3.5371,3.5349,3.5349,3.5349,3.5349,3.5349,0,3.5765,3.5744,3.5718,3.5682,3.5659,3.5648,3.5617,3.5598,3.5569,3.5539,3.5512,3.5472,3.5438,3.5405,3.5369,3.5352,3.5343,3.5343,3.5344,3.5338,3.5349,3.5357,3.535,3.535,3.535,3.535,3.535,3.535,3.5757,3.5728,3.5713,3.5671,3.565,3.5618,3.5601,3.5577,3.5553,3.5511,3.5484,3.5462,3.543,3.5391,3.5359,3.5349,3.5336,3.5338,3.5327,3.5337,3.5338,3.5338,3.5345,3.5336,3.5336,3.5318,3.5317,3.5317]}]]